TCISK LTAC-LQSA

Flight info

Callsign TCISK
Flight time 1h 44m
Altitude 38000
Route YAVRU UA4 ERKAL UL615 VADEN L615 DOLAP DCT VEBAR
Aircraft C750/M-SBDE3FGHRWXY/S

Departure

Time 2026-05-07 14:02
Airport Esenboğa International Airport (LTAC)

Arrival

Time 2026-05-07 15:46
Airport Sarajevo International Airport (LQSA)
Time Latitude Longitude Altitude Speed Heading
2026-05-07 13:49 40.12334 33.00204 3118 ft 0 kts 260°
2026-05-07 13:54 40.12335 33.00216 3118 ft 3 kts 260°
2026-05-07 13:54 40.12338 33.00238 3118 ft 2 kts 260°
2026-05-07 13:54 40.12336 33.00258 3118 ft 2 kts 334°
2026-05-07 13:55 40.12334 33.00260 3118 ft 0 kts 347°
2026-05-07 13:56 40.12350 33.00257 3118 ft 8 kts 351°
2026-05-07 13:57 40.12455 33.00249 3118 ft 22 kts
2026-05-07 13:57 40.12565 33.00226 3118 ft 11 kts 350°
2026-05-07 13:57 40.12592 33.00180 3118 ft 6 kts 270°
2026-05-07 13:57 40.12592 33.00129 3118 ft 6 kts 271°
2026-05-07 13:58 40.12593 33.00051 3118 ft 11 kts 271°
2026-05-07 13:58 40.12599 32.99952 3118 ft 6 kts 309°
2026-05-07 13:58 40.12654 32.99944 3119 ft 13 kts
2026-05-07 13:58 40.12774 32.99945 3120 ft 16 kts
2026-05-07 13:59 40.12862 33.00014 3121 ft 14 kts 36°
2026-05-07 13:59 40.12945 33.00092 3122 ft 16 kts 36°
2026-05-07 13:59 40.13040 33.00184 3122 ft 18 kts 36°
2026-05-07 13:59 40.13149 33.00289 3123 ft 20 kts 37°
2026-05-07 14:00 40.13278 33.00351 3123 ft 20 kts 351°
2026-05-07 14:00 40.13362 33.00241 3125 ft 18 kts 276°
2026-05-07 14:00 40.13325 33.00099 3124 ft 17 kts 246°
2026-05-07 14:00 40.13274 32.99947 3121 ft 19 kts 246°
2026-05-07 14:01 40.13218 32.99784 3123 ft 20 kts 245°
2026-05-07 14:01 40.13139 32.99666 3122 ft 19 kts 216°
2026-05-07 14:01 40.12811 32.99352 3119 ft 109 kts 216°
2026-05-07 14:01 40.12071 32.98627 3404 ft 136 kts 220°
2026-05-07 14:02 40.11290 32.97859 4030 ft 148 kts 218°
2026-05-07 14:02 40.10421 32.97055 4700 ft 155 kts 218°
2026-05-07 14:02 40.09541 32.96239 5428 ft 156 kts 218°
2026-05-07 14:02 40.08631 32.95395 6087 ft 163 kts 218°
2026-05-07 14:03 40.07686 32.94510 6651 ft 175 kts 218°
2026-05-07 14:03 40.06619 32.93499 6961 ft 203 kts 219°
2026-05-07 14:03 40.05404 32.92350 7272 ft 227 kts 217°
2026-05-07 14:03 40.04217 32.90980 7855 ft 230 kts 238°
2026-05-07 14:04 40.03876 32.88992 8574 ft 229 kts 274°
2026-05-07 14:04 40.04332 32.87001 9225 ft 233 kts 300°
2026-05-07 14:04 40.05275 32.85317 9928 ft 233 kts 308°
2026-05-07 14:04 40.06251 32.83603 10483 ft 236 kts 306°
2026-05-07 14:05 40.07183 32.81815 11066 ft 239 kts 304°
2026-05-07 14:05 40.08163 32.79919 11357 ft 265 kts 304°
2026-05-07 14:05 40.09259 32.77836 11606 ft 291 kts 304°
2026-05-07 14:05 40.10462 32.75558 11766 ft 317 kts 304°
2026-05-07 14:06 40.11746 32.73114 11845 ft 343 kts 304°
2026-05-07 14:06 40.13113 32.70501 12409 ft 349 kts 304°
2026-05-07 14:06 40.14491 32.67873 13160 ft 351 kts 304°
2026-05-07 14:06 40.15607 32.65744 13724 ft 354 kts 304°
2026-05-07 14:07 40.16366 32.64297 14085 ft 356 kts 304°
2026-05-07 14:07 40.17768 32.61616 14715 ft 357 kts 304°
2026-05-07 14:07 40.19175 32.58922 15315 ft 361 kts 304°
2026-05-07 14:07 40.20599 32.56195 15881 ft 364 kts 304°
2026-05-07 14:08 40.22029 32.53456 16561 ft 366 kts 304°
2026-05-07 14:08 40.23470 32.50691 17179 ft 370 kts 304°
2026-05-07 14:08 40.24926 32.47895 17829 ft 373 kts 304°
2026-05-07 14:08 40.26393 32.45077 18481 ft 376 kts 304°
2026-05-07 14:09 40.27851 32.42273 19120 ft 377 kts 305°
2026-05-07 14:09 40.29331 32.39424 19821 ft 378 kts 305°
2026-05-07 14:09 40.30814 32.36566 20498 ft 380 kts 305°
2026-05-07 14:09 40.32302 32.33697 21236 ft 380 kts 305°
2026-05-07 14:10 40.33794 32.30817 21857 ft 383 kts 306°
2026-05-07 14:10 40.35297 32.27913 22530 ft 385 kts 306°
2026-05-07 14:10 40.36781 32.25043 23221 ft 386 kts 306°
2026-05-07 14:10 40.38298 32.22107 23843 ft 389 kts 306°
2026-05-07 14:11 40.39819 32.19161 24395 ft 390 kts 306°
2026-05-07 14:11 40.41342 32.16207 24960 ft 391 kts 306°
2026-05-07 14:11 40.42874 32.13233 25489 ft 393 kts 306°
2026-05-07 14:11 40.44414 32.10242 25997 ft 396 kts 306°
2026-05-07 14:12 40.45963 32.07229 26519 ft 398 kts 306°
2026-05-07 14:12 40.47515 32.04206 27057 ft 400 kts 306°
2026-05-07 14:12 40.49061 32.01193 27556 ft 404 kts 307°
2026-05-07 14:12 40.50635 31.98125 28095 ft 406 kts 307°
2026-05-07 14:13 40.52221 31.95029 28644 ft 408 kts 306°
2026-05-07 14:13 40.53809 31.91923 29182 ft 411 kts 306°
2026-05-07 14:13 40.55412 31.88787 29677 ft 414 kts 307°
2026-05-07 14:13 40.56992 31.85649 30138 ft 417 kts 305°
2026-05-07 14:14 40.58345 31.82241 30512 ft 424 kts 297°
2026-05-07 14:14 40.59394 31.78589 30919 ft 429 kts 292°
2026-05-07 14:14 40.60310 31.74837 31390 ft 430 kts 292°
2026-05-07 14:14 40.61241 31.71105 31991 ft 427 kts 292°
2026-05-07 14:15 40.62162 31.67428 32561 ft 427 kts 291°
2026-05-07 14:15 40.63079 31.63713 33130 ft 426 kts 291°
2026-05-07 14:15 40.63990 31.59989 33712 ft 425 kts 291°
2026-05-07 14:15 40.64902 31.56288 34305 ft 424 kts 291°
2026-05-07 14:16 40.65813 31.52595 34818 ft 424 kts 291°
2026-05-07 14:16 40.66711 31.48941 35329 ft 423 kts 291°
2026-05-07 14:16 40.67615 31.45249 35829 ft 423 kts 291°
2026-05-07 14:16 40.68516 31.41562 36334 ft 422 kts 291°
2026-05-07 14:17 40.69413 31.37897 36914 ft 420 kts 291°
2026-05-07 14:17 40.70308 31.34232 37431 ft 419 kts 291°
2026-05-07 14:17 40.71199 31.30570 37926 ft 417 kts 290°
2026-05-07 14:17 40.72090 31.26909 38117 ft 423 kts 290°
2026-05-07 14:18 40.72991 31.23207 38112 ft 434 kts 290°
2026-05-07 14:18 40.74870 31.15448 38132 ft 452 kts 290°
2026-05-07 14:19 40.76810 31.07407 38124 ft 464 kts 290°
2026-05-07 14:19 40.78772 30.99258 38134 ft 472 kts 290°
2026-05-07 14:20 40.80764 30.90943 38132 ft 475 kts 290°
2026-05-07 14:20 40.82752 30.82622 38124 ft 475 kts 290°
2026-05-07 14:21 40.84736 30.74285 38121 ft 475 kts 290°
2026-05-07 14:21 40.86671 30.65996 38110 ft 476 kts 288°
2026-05-07 14:22 40.88189 30.57457 38118 ft 477 kts 287°
2026-05-07 14:22 40.89731 30.48915 38106 ft 476 kts 287°
2026-05-07 14:23 40.91232 30.40425 38110 ft 477 kts 287°
2026-05-07 14:23 40.92748 30.31881 38108 ft 477 kts 287°
2026-05-07 14:24 40.94252 30.23318 38124 ft 477 kts 286°
2026-05-07 14:24 40.95739 30.14834 38105 ft 476 kts 286°
2026-05-07 14:25 40.97231 30.06277 38106 ft 476 kts 286°
2026-05-07 14:25 40.98714 29.97728 38106 ft 476 kts 286°
2026-05-07 14:26 41.00172 29.89171 38096 ft 477 kts 285°
2026-05-07 14:26 41.01617 29.80631 38108 ft 475 kts 285°
2026-05-07 14:27 41.03052 29.72138 38102 ft 475 kts 285°
2026-05-07 14:27 41.04487 29.63580 38102 ft 475 kts 285°
2026-05-07 14:28 41.05925 29.55041 38102 ft 471 kts 285°
2026-05-07 14:28 41.07353 29.46538 38099 ft 472 kts 285°
2026-05-07 14:29 41.08765 29.38071 38101 ft 472 kts 285°
2026-05-07 14:29 41.10181 29.29551 38102 ft 472 kts 285°
2026-05-07 14:30 41.11578 29.21096 38097 ft 471 kts 284°
2026-05-07 14:30 41.13657 29.12878 38091 ft 468 kts 297°
2026-05-07 14:31 41.17077 29.05583 38102 ft 468 kts 304°
2026-05-07 14:31 41.20673 28.98370 38106 ft 468 kts 304°
2026-05-07 14:32 41.24289 28.91142 38102 ft 469 kts 303°
2026-05-07 14:32 41.27895 28.83899 38106 ft 469 kts 303°
2026-05-07 14:33 41.31476 28.76693 38108 ft 469 kts 303°
2026-05-07 14:33 41.35080 28.69424 38096 ft 471 kts 303°
2026-05-07 14:34 41.38101 28.63317 38093 ft 471 kts 303°
2026-05-07 14:34 41.41688 28.56051 38092 ft 471 kts 303°
2026-05-07 14:35 41.45290 28.48737 38093 ft 471 kts 303°
2026-05-07 14:35 41.48899 28.41390 38097 ft 473 kts 303°
2026-05-07 14:36 41.52484 28.34079 38096 ft 474 kts 303°
2026-05-07 14:36 41.56087 28.26713 38097 ft 474 kts 303°
2026-05-07 14:37 41.59685 28.19341 38098 ft 474 kts 302°
2026-05-07 14:37 41.65080 28.08250 38103 ft 474 kts 302°
2026-05-07 14:38 41.68653 28.00884 38097 ft 474 kts 302°
2026-05-07 14:38 41.72250 27.93450 38095 ft 474 kts 302°
2026-05-07 14:39 41.75841 27.86011 38095 ft 475 kts 302°
2026-05-07 14:39 41.79400 27.78619 38086 ft 474 kts 302°
2026-05-07 14:40 41.82976 27.71174 38083 ft 475 kts 302°
2026-05-07 14:40 41.86561 27.63690 38080 ft 476 kts 302°
2026-05-07 14:41 41.90143 27.56196 38076 ft 476 kts 302°
2026-05-07 14:41 41.93695 27.48745 38077 ft 477 kts 302°
2026-05-07 14:42 41.97276 27.41217 38073 ft 479 kts 301°
2026-05-07 14:42 42.00852 27.33677 38076 ft 477 kts 301°
2026-05-07 14:43 42.04423 27.26131 38076 ft 477 kts 301°
2026-05-07 14:43 42.07600 27.18374 38071 ft 477 kts 292°
2026-05-07 14:44 42.10193 27.10111 38079 ft 478 kts 292°
2026-05-07 14:44 42.12820 27.01870 38091 ft 478 kts 292°
2026-05-07 14:45 42.15412 26.93594 38080 ft 479 kts 292°
2026-05-07 14:45 42.18019 26.85326 38078 ft 480 kts 292°
2026-05-07 14:46 42.20596 26.77075 38082 ft 480 kts 292°
2026-05-07 14:46 42.23198 26.68752 38073 ft 478 kts 292°
2026-05-07 14:47 42.24456 26.64713 38147 ft 456 kts 292°
2026-05-07 14:47 42.25642 26.60896 39228 ft 433 kts 292°
2026-05-07 14:47 42.26793 26.57189 39924 ft 422 kts 292°
2026-05-07 14:47 42.27933 26.53509 40041 ft 429 kts 292°
2026-05-07 14:48 42.30272 26.45951 40045 ft 446 kts 292°
2026-05-07 14:48 42.32705 26.38066 40059 ft 461 kts 292°
2026-05-07 14:49 42.35204 26.29943 40058 ft 472 kts 292°
2026-05-07 14:49 42.37731 26.21701 40060 ft 480 kts 292°
2026-05-07 14:50 42.40297 26.13307 40060 ft 483 kts 292°
2026-05-07 14:50 42.42861 26.04892 40057 ft 484 kts 291°
2026-05-07 14:51 42.45424 25.96455 40055 ft 484 kts 291°
2026-05-07 14:51 42.47977 25.88021 40054 ft 484 kts 291°
2026-05-07 14:52 42.50526 25.79574 40052 ft 484 kts 291°
2026-05-07 14:52 42.53051 25.71180 40052 ft 483 kts 291°
2026-05-07 14:53 42.55579 25.62746 40048 ft 482 kts 291°
2026-05-07 14:53 42.58102 25.54302 40046 ft 482 kts 291°
2026-05-07 14:54 42.60616 25.45861 40048 ft 482 kts 291°
2026-05-07 14:54 42.63127 25.37402 40051 ft 483 kts 291°
2026-05-07 14:55 42.65618 25.28986 40051 ft 483 kts 291°
2026-05-07 14:55 42.68121 25.20497 40047 ft 483 kts 291°
2026-05-07 14:56 42.70617 25.12008 40058 ft 482 kts 290°
2026-05-07 14:56 42.73101 25.03527 40070 ft 483 kts 290°
2026-05-07 14:57 42.75567 24.95083 40073 ft 482 kts 290°
2026-05-07 14:57 42.78042 24.86578 40076 ft 483 kts 290°
2026-05-07 14:58 42.80512 24.78064 40083 ft 484 kts 290°
2026-05-07 14:58 42.82982 24.69519 40084 ft 485 kts 290°
2026-05-07 14:59 42.85451 24.60952 40084 ft 484 kts 290°
2026-05-07 14:59 42.87891 24.52453 40087 ft 484 kts 290°
2026-05-07 15:00 42.90348 24.43868 40094 ft 486 kts 290°
2026-05-07 15:00 42.92784 24.35328 40093 ft 485 kts 290°
2026-05-07 15:01 42.94001 24.31051 39960 ft 475 kts 290°
2026-05-07 15:01 42.95189 24.26869 39478 ft 470 kts 289°
2026-05-07 15:01 42.96363 24.22726 39006 ft 464 kts 289°
2026-05-07 15:01 42.97518 24.18644 38498 ft 455 kts 289°
2026-05-07 15:02 42.98675 24.14547 38070 ft 468 kts 289°
2026-05-07 15:02 42.99841 24.10408 38096 ft 475 kts 289°
2026-05-07 15:02 43.02246 24.01873 38089 ft 485 kts 289°
2026-05-07 15:03 43.04681 23.93186 38081 ft 491 kts 289°
2026-05-07 15:03 43.07113 23.84486 38081 ft 492 kts 289°
2026-05-07 15:04 43.09557 23.75709 38078 ft 493 kts 288°
2026-05-07 15:04 43.11990 23.66944 38074 ft 493 kts 288°
2026-05-07 15:05 43.14414 23.58174 38074 ft 491 kts 288°
2026-05-07 15:05 43.16828 23.49414 38070 ft 492 kts 288°
2026-05-07 15:06 43.19239 23.40632 38082 ft 491 kts 288°
2026-05-07 15:06 43.21633 23.31924 38080 ft 492 kts 289°
2026-05-07 15:07 43.24164 23.23198 38078 ft 491 kts 289°
2026-05-07 15:07 43.26668 23.14466 38083 ft 491 kts 289°
2026-05-07 15:08 43.29188 23.05728 38085 ft 491 kts 289°
2026-05-07 15:08 43.31668 22.97035 38086 ft 491 kts 289°
2026-05-07 15:09 43.34168 22.88284 38083 ft 491 kts 289°
2026-05-07 15:09 43.36653 22.79528 38083 ft 491 kts 289°
2026-05-07 15:10 43.38840 22.70717 38071 ft 489 kts 285°
2026-05-07 15:10 43.40876 22.61771 38081 ft 490 kts 285°
2026-05-07 15:11 43.42941 22.52830 38082 ft 490 kts 285°
2026-05-07 15:11 43.44968 22.43881 38079 ft 490 kts 285°
2026-05-07 15:12 43.47011 22.34926 38074 ft 490 kts 285°
2026-05-07 15:12 43.49022 22.26009 38070 ft 488 kts 284°
2026-05-07 15:13 43.51038 22.17074 38072 ft 488 kts 284°
2026-05-07 15:13 43.53046 22.08113 38075 ft 489 kts 284°
2026-05-07 15:14 43.55039 21.99194 38073 ft 489 kts 284°
2026-05-07 15:14 43.57035 21.90219 38068 ft 489 kts 284°
2026-05-07 15:15 43.59026 21.81233 38068 ft 489 kts 284°
2026-05-07 15:15 43.60994 21.72311 38060 ft 488 kts 284°
2026-05-07 15:16 43.62968 21.63327 38065 ft 489 kts 284°
2026-05-07 15:16 43.64930 21.54356 38048 ft 487 kts 284°
2026-05-07 15:17 43.66884 21.45385 38038 ft 488 kts 284°
2026-05-07 15:17 43.68834 21.36395 38040 ft 488 kts 284°
2026-05-07 15:18 43.70777 21.27397 38049 ft 488 kts 284°
2026-05-07 15:18 43.72705 21.18433 38040 ft 489 kts 284°
2026-05-07 15:19 43.74639 21.09401 38043 ft 489 kts 284°
2026-05-07 15:19 43.76553 21.00426 38040 ft 489 kts 284°
2026-05-07 15:20 43.78468 20.91402 38031 ft 488 kts 284°
2026-05-07 15:20 43.80377 20.82373 38020 ft 488 kts 284°
2026-05-07 15:21 43.81958 20.74860 38023 ft 489 kts 284°
2026-05-07 15:21 43.83856 20.65811 38023 ft 489 kts 284°
2026-05-07 15:22 43.85738 20.56796 38023 ft 485 kts 284°
2026-05-07 15:22 43.87596 20.47855 37953 ft 479 kts 284°
2026-05-07 15:23 43.88497 20.43524 37318 ft 455 kts 284°
2026-05-07 15:23 43.89352 20.39391 36729 ft 436 kts 283°
2026-05-07 15:23 43.90175 20.35389 36168 ft 427 kts 283°
2026-05-07 15:23 43.90987 20.31428 35610 ft 429 kts 283°
2026-05-07 15:24 43.91806 20.27439 35054 ft 431 kts 284°
2026-05-07 15:24 43.92618 20.23490 34488 ft 431 kts 284°
2026-05-07 15:24 43.93442 20.19471 33905 ft 434 kts 284°
2026-05-07 15:24 43.94264 20.15442 33324 ft 433 kts 284°
2026-05-07 15:25 43.95087 20.11404 32742 ft 435 kts 284°
2026-05-07 15:25 43.95910 20.07361 32166 ft 436 kts 283°
2026-05-07 15:25 43.96736 20.03293 31587 ft 437 kts 283°
2026-05-07 15:25 43.97561 19.99223 31006 ft 438 kts 283°
2026-05-07 15:26 43.98387 19.95141 30429 ft 439 kts 283°
2026-05-07 15:26 43.99196 19.91135 29826 ft 434 kts 283°
2026-05-07 15:26 44.00008 19.87109 29253 ft 431 kts 283°
2026-05-07 15:26 44.00811 19.83109 28683 ft 427 kts 283°
2026-05-07 15:27 44.01605 19.79148 28125 ft 424 kts 283°
2026-05-07 15:27 44.02393 19.75214 27567 ft 420 kts 283°
2026-05-07 15:27 44.03174 19.71306 27014 ft 418 kts 283°
2026-05-07 15:27 44.03949 19.67422 26462 ft 415 kts 283°
2026-05-07 15:28 44.04716 19.63568 25910 ft 412 kts 283°
2026-05-07 15:28 44.05467 19.59789 25382 ft 409 kts 283°
2026-05-07 15:28 44.06220 19.55988 24844 ft 405 kts 282°
2026-05-07 15:28 44.06968 19.52214 24313 ft 403 kts 282°
2026-05-07 15:29 44.07709 19.48466 23783 ft 400 kts 282°
2026-05-07 15:29 44.08442 19.44744 23207 ft 397 kts 282°
2026-05-07 15:29 44.09169 19.41041 22694 ft 395 kts 282°
2026-05-07 15:29 44.09893 19.37368 22177 ft 392 kts 282°
2026-05-07 15:30 44.10608 19.33717 21662 ft 392 kts 282°
2026-05-07 15:30 44.11311 19.30117 21152 ft 387 kts 282°
2026-05-07 15:30 44.12017 19.26503 20646 ft 386 kts 282°
2026-05-07 15:30 44.12718 19.22912 20136 ft 382 kts 282°
2026-05-07 15:31 44.13384 19.19349 19622 ft 378 kts 279°
2026-05-07 15:31 44.13511 19.15731 19122 ft 372 kts 264°
2026-05-07 15:31 44.13259 19.12196 18658 ft 371 kts 263°
2026-05-07 15:31 44.12991 19.08628 18142 ft 370 kts 263°
2026-05-07 15:32 44.12740 19.05083 17636 ft 367 kts 263°
2026-05-07 15:32 44.12492 19.01549 17160 ft 366 kts 263°
2026-05-07 15:32 44.12237 18.98025 16678 ft 363 kts 263°
2026-05-07 15:32 44.11979 18.94531 16204 ft 362 kts 263°
2026-05-07 15:33 44.11728 18.91098 15731 ft 360 kts 263°
2026-05-07 15:33 44.11475 18.87635 15257 ft 358 kts 263°
2026-05-07 15:33 44.11222 18.84179 14783 ft 357 kts 263°
2026-05-07 15:33 44.10970 18.80774 14280 ft 351 kts 263°
2026-05-07 15:34 44.10717 18.77375 13808 ft 349 kts 263°
2026-05-07 15:34 44.10467 18.74023 13323 ft 349 kts 263°
2026-05-07 15:34 44.10217 18.70674 12863 ft 346 kts 263°
2026-05-07 15:34 44.09971 18.67397 12412 ft 346 kts 263°
2026-05-07 15:35 44.09720 18.64074 11957 ft 344 kts 263°
2026-05-07 15:35 44.09472 18.60796 11513 ft 344 kts 263°
2026-05-07 15:35 44.09227 18.57576 11063 ft 321 kts 263°
2026-05-07 15:35 44.09001 18.54593 10653 ft 299 kts 263°
2026-05-07 15:36 44.08787 18.51790 10276 ft 284 kts 263°
2026-05-07 15:36 44.08582 18.49130 9906 ft 280 kts 263°
2026-05-07 15:36 44.08373 18.46434 9519 ft 277 kts 263°
2026-05-07 15:36 44.08169 18.43788 9159 ft 274 kts 263°
2026-05-07 15:37 44.07968 18.41189 8791 ft 270 kts 263°
2026-05-07 15:37 44.07766 18.38599 8435 ft 266 kts 262°
2026-05-07 15:37 44.07566 18.36038 8094 ft 266 kts 262°
2026-05-07 15:37 44.07367 18.33480 7739 ft 266 kts 262°
2026-05-07 15:38 44.07166 18.30933 7407 ft 263 kts 262°
2026-05-07 15:38 44.06965 18.28396 7018 ft 264 kts 262°
2026-05-07 15:38 44.06768 18.25866 6700 ft 263 kts 262°
2026-05-07 15:38 44.06442 18.23452 6473 ft 249 kts 250°
2026-05-07 15:39 44.05810 18.21162 6505 ft 256 kts 248°
2026-05-07 15:39 44.05190 18.18848 6513 ft 254 kts 249°
2026-05-07 15:39 44.04579 18.16538 6518 ft 258 kts 249°
2026-05-07 15:39 44.03949 18.14187 6515 ft 260 kts 248°
2026-05-07 15:40 44.03316 18.11834 6492 ft 257 kts 248°
2026-05-07 15:40 44.02719 18.09614 6497 ft 237 kts 247°
2026-05-07 15:40 44.01855 18.07689 6415 ft 237 kts 226°
2026-05-07 15:40 44.00476 18.06424 6277 ft 240 kts 203°
2026-05-07 15:41 43.98860 18.06021 6101 ft 241 kts 186°
2026-05-07 15:41 43.97173 18.05889 5932 ft 243 kts 186°
2026-05-07 15:41 43.95495 18.05737 5708 ft 240 kts 186°
2026-05-07 15:41 43.93839 18.05919 5431 ft 243 kts 166°
2026-05-07 15:42 43.92397 18.07109 5212 ft 245 kts 143°
2026-05-07 15:42 43.91426 18.09051 5006 ft 248 kts 123°
2026-05-07 15:42 43.90648 18.11199 4836 ft 248 kts 120°
2026-05-07 15:42 43.89867 18.13298 4609 ft 247 kts 119°
2026-05-07 15:43 43.89077 18.15406 4376 ft 245 kts 117°
2026-05-07 15:43 43.88305 18.17498 4071 ft 240 kts 117°
2026-05-07 15:43 43.87579 18.19452 3726 ft 216 kts 117°
2026-05-07 15:43 43.86898 18.21278 3390 ft 204 kts 118°
2026-05-07 15:44 43.86290 18.22909 3147 ft 177 kts 120°
2026-05-07 15:44 43.85752 18.24348 2883 ft 157 kts 121°
2026-05-07 15:44 43.85280 18.25603 2711 ft 143 kts 120°
2026-05-07 15:44 43.84824 18.26818 2517 ft 141 kts 122°
2026-05-07 15:45 43.84381 18.28009 2308 ft 134 kts 119°
2026-05-07 15:45 43.83966 18.29127 2151 ft 123 kts 120°
2026-05-07 15:45 43.83582 18.30148 1966 ft 118 kts 119°
2026-05-07 15:45 43.83211 18.31153 1801 ft 118 kts 120°
2026-05-07 15:46 43.82533 18.32952 1680 ft 67 kts 118°
2026-05-07 15:46 43.82389 18.33335 1687 ft 36 kts 118°
2026-05-07 15:46 43.82297 18.33576 1691 ft 15 kts 117°
2026-05-07 15:47 43.82280 18.33674 1694 ft 9 kts 52°
2026-05-07 15:47 43.82370 18.33657 1686 ft 17 kts 345°
2026-05-07 15:47 43.82461 18.33616 1682 ft 7 kts 314°
2026-05-07 15:47 43.82493 18.33529 1683 ft 12 kts 296°
2026-05-07 15:48 43.82536 18.33415 1678 ft 12 kts 297°
2026-05-07 15:48 43.82577 18.33405 1674 ft 8 kts 27°
2026-05-07 15:48 43.82601 18.33437 1678 ft 6 kts 79°
2026-05-07 15:48 43.82575 18.33461 1676 ft 5 kts 213°
2026-05-07 15:49 43.82565 18.33443 1675 ft 0 kts 216°